Time,TemperatureF,DewpointF,PressureIn,WindDirection,WindDirectionDegrees,WindSpeedMPH,WindSpeedGustMPH,Humidity,HourlyPrecipIn,Conditions,Clouds,dailyrainin,SolarRadiationWatts/m^2,SoftwareType,DateUTC
2013-07-16 00:00:00,74.7,70.2,30.22,WNW,284,0.0,0.0,86,0.00,CLR,,0.00,0.0,WeatherDisplay:10.37,2013-07-16 04:00:00,
2013-07-16 00:01:00,74.7,70.2,30.22,WNW,284,0.0,0.0,86,0.00,CLR,,0.00,0.0,WeatherDisplay:10.37,2013-07-16 04:01:00,
2013-07-16 00:03:00,74.9,70.8,30.22,WNW,284,0.0,0.0,87,0.00,CLR,,0.00,0.0,WeatherDisplay:10.37,2013-07-16 04:03:00,
2013-07-16 00:08:00,74.9,70.8,30.22,WNW,284,0.0,0.0,87,0.00,CLR,,0.00,0.0,WeatherDisplay:10.37,2013-07-16 04:08:00,
2013-07-16 00:13:00,74.6,70.5,30.22,WNW,284,0.0,0.0,87,0.00,CLR,,0.00,0.0,WeatherDisplay:10.37,2013-07-16 04:13:00,
2013-07-16 00:18:00,74.4,70.3,30.22,WNW,284,0.0,0.0,87,0.00,CLR,,0.00,0.0,WeatherDisplay:10.37,2013-07-16 04:18:00,
2013-07-16 00:23:00,74.4,70.3,30.22,WNW,284,0.0,0.0,87,0.00,CLR,,0.00,0.0,WeatherDisplay:10.37,2013-07-16 04:23:00,
2013-07-16 00:28:00,74.4,70.3,30.22,WNW,284,0.0,0.0,87,0.00,CLR,,0.00,0.0,WeatherDisplay:10.37,2013-07-16 04:28:00,
2013-07-16 00:33:00,74.4,70.6,30.22,WNW,284,0.0,0.0,88,0.00,CLR,,0.00,0.0,WeatherDisplay:10.37,2013-07-16 04:33:00,
2013-07-16 00:38:00,74.2,70.1,30.22,WNW,284,0.0,0.0,87,0.00,CLR,,0.00,0.0,WeatherDisplay:10.37,2013-07-16 04:38:00,
2013-07-16 00:43:00,74.0,70.2,30.22,WNW,284,0.0,0.0,88,0.00,CLR,,0.00,0.0,WeatherDisplay:10.37,2013-07-16 04:43:00,
2013-07-16 00:48:00,73.9,70.1,30.22,WNW,284,0.0,0.0,88,0.00,CLR,,0.00,0.0,WeatherDisplay:10.37,2013-07-16 04:48:00,
2013-07-16 00:53:00,74.0,70.2,30.22,WNW,284,0.0,0.0,88,0.00,CLR,,0.00,0.0,WeatherDisplay:10.37,2013-07-16 04:53:00,
2013-07-16 00:58:00,74.0,70.2,30.22,WNW,284,0.0,0.0,88,0.00,CLR,,0.00,0.0,WeatherDisplay:10.37,2013-07-16 04:58:00,
2013-07-16 01:03:00,74.0,70.2,30.22,WNW,284,0.0,0.0,88,0.00,CLR,,0.00,0.0,WeatherDisplay:10.37,2013-07-16 05:03:00,
2013-07-16 01:08:00,74.0,70.2,30.22,WNW,284,0.0,0.0,88,0.00,CLR,,0.00,0.0,WeatherDisplay:10.37,2013-07-16 05:08:00,
2013-07-16 01:13:00,73.7,69.9,30.22,WNW,284,0.0,0.0,88,0.00,CLR,,0.00,0.0,WeatherDisplay:10.37,2013-07-16 05:13:00,
2013-07-16 01:18:00,73.5,69.7,30.22,WNW,284,0.0,0.0,88,0.00,CLR,,0.00,0.0,WeatherDisplay:10.37,2013-07-16 05:18:00,
2013-07-16 01:23:00,73.3,69.5,30.22,WNW,284,0.0,0.0,88,0.00,CLR,,0.00,0.0,WeatherDisplay:10.37,2013-07-16 05:23:00,
2013-07-16 01:28:00,73.2,69.4,30.22,WNW,284,0.0,0.0,88,0.00,CLR,,0.00,0.0,WeatherDisplay:10.37,2013-07-16 05:28:00,
2013-07-16 01:33:00,73.3,69.9,30.22,WNW,284,0.0,0.0,89,0.00,CLR,,0.00,0.0,WeatherDisplay:10.37,2013-07-16 05:33:00,
2013-07-16 01:38:00,73.5,70.1,30.22,WNW,284,0.0,0.0,89,0.00,CLR,,0.00,0.0,WeatherDisplay:10.37,2013-07-16 05:38:00,
2013-07-16 01:43:00,73.7,70.3,30.22,WNW,284,0.0,0.0,89,0.00,CLR,,0.00,0.0,WeatherDisplay:10.37,2013-07-16 05:43:00,
2013-07-16 01:48:00,73.7,70.3,30.22,WNW,284,0.0,0.0,89,0.00,CLR,,0.00,0.0,WeatherDisplay:10.37,2013-07-16 05:48:00,
2013-07-16 01:53:00,73.7,70.3,30.22,WNW,284,0.0,0.0,89,0.00,CLR,,0.00,0.0,WeatherDisplay:10.37,2013-07-16 05:53:00,
2013-07-16 01:58:00,73.5,70.1,30.22,WNW,284,0.0,0.0,89,0.00,CLR,,0.00,0.0,WeatherDisplay:10.37,2013-07-16 05:58:00,
2013-07-16 02:03:00,73.3,69.9,30.22,WNW,284,0.0,0.0,89,0.00,CLR,,0.00,0.0,WeatherDisplay:10.37,2013-07-16 06:03:00,
2013-07-16 02:08:00,73.3,69.9,30.22,WNW,284,0.0,0.0,89,0.00,CLR,,0.00,0.0,WeatherDisplay:10.37,2013-07-16 06:08:00,
2013-07-16 02:13:00,73.3,69.9,30.22,WNW,284,0.0,0.0,89,0.00,CLR,,0.00,0.0,WeatherDisplay:10.37,2013-07-16 06:13:00,
2013-07-16 02:18:00,73.3,69.9,30.22,WNW,284,0.0,0.0,89,0.00,CLR,,0.00,0.0,WeatherDisplay:10.37,2013-07-16 06:18:00,
2013-07-16 02:23:00,73.3,69.9,30.22,WNW,284,0.0,0.0,89,0.00,CLR,,0.00,0.0,WeatherDisplay:10.37,2013-07-16 06:23:00,
2013-07-16 02:28:00,73.5,70.4,30.22,WNW,284,0.0,0.0,90,0.00,CLR,,0.00,0.0,WeatherDisplay:10.37,2013-07-16 06:28:00,
2013-07-16 02:33:00,73.5,70.4,30.22,WNW,284,0.0,0.0,90,0.00,CLR,,0.00,0.0,WeatherDisplay:10.37,2013-07-16 06:33:00,
2013-07-16 02:38:00,73.5,70.4,30.22,WNW,284,0.0,0.0,90,0.00,CLR,,0.00,0.0,WeatherDisplay:10.37,2013-07-16 06:38:00,
2013-07-16 02:43:00,73.7,70.6,30.22,WNW,284,0.0,0.0,90,0.00,CLR,,0.00,0.0,WeatherDisplay:10.37,2013-07-16 06:43:00,
2013-07-16 02:48:00,73.7,70.6,30.22,WNW,284,0.0,0.0,90,0.00,CLR,,0.00,0.0,WeatherDisplay:10.37,2013-07-16 06:48:00,
2013-07-16 02:53:00,73.7,70.6,30.22,WNW,284,0.0,0.0,90,0.00,CLR,,0.00,0.0,WeatherDisplay:10.37,2013-07-16 06:53:00,
2013-07-16 02:58:00,73.7,70.6,30.22,WNW,284,0.0,0.0,90,0.00,CLR,,0.00,0.0,WeatherDisplay:10.37,2013-07-16 06:58:00,
2013-07-16 03:03:00,73.5,70.4,30.22,WNW,284,0.0,0.0,90,0.00,CLR,,0.00,0.0,WeatherDisplay:10.37,2013-07-16 07:03:00,
2013-07-16 03:08:00,73.5,70.4,30.22,WNW,284,0.0,0.0,90,0.00,CLR,,0.00,0.0,WeatherDisplay:10.37,2013-07-16 07:08:00,
2013-07-16 03:13:00,73.5,70.4,30.22,WNW,284,0.0,0.0,90,0.00,CLR,,0.00,0.0,WeatherDisplay:10.37,2013-07-16 07:13:00,
2013-07-16 03:18:00,73.5,70.4,30.22,WNW,284,0.0,0.0,90,0.00,CLR,,0.00,0.0,WeatherDisplay:10.37,2013-07-16 07:18:00,
2013-07-16 03:23:00,73.5,70.1,30.22,WNW,284,0.0,0.0,89,0.00,CLR,,0.00,0.0,WeatherDisplay:10.37,2013-07-16 07:23:00,
2013-07-16 03:28:00,73.5,70.1,30.22,WNW,284,0.0,0.0,89,0.00,CLR,,0.00,0.0,WeatherDisplay:10.37,2013-07-16 07:28:00,
2013-07-16 03:33:00,73.5,70.1,30.22,WNW,284,0.0,0.0,89,0.00,CLR,,0.00,0.0,WeatherDisplay:10.37,2013-07-16 07:33:00,
2013-07-16 03:38:00,73.5,70.1,30.22,WNW,284,0.0,0.0,89,0.00,CLR,,0.00,0.0,WeatherDisplay:10.37,2013-07-16 07:38:00,
2013-07-16 03:43:00,73.5,70.1,30.22,WNW,284,0.0,0.0,89,0.00,CLR,,0.00,0.0,WeatherDisplay:10.37,2013-07-16 07:43:00,
2013-07-16 03:48:00,73.5,70.1,30.22,WNW,284,0.0,1.2,89,0.00,CLR,,0.00,0.0,WeatherDisplay:10.37,2013-07-16 07:48:00,
2013-07-16 03:53:00,73.5,69.7,30.22,WNW,284,0.0,0.0,88,0.00,CLR,,0.00,0.0,WeatherDisplay:10.37,2013-07-16 07:53:00,
2013-07-16 03:58:00,73.5,69.7,30.22,WNW,284,0.2,1.5,88,0.00,CLR,,0.00,0.0,WeatherDisplay:10.37,2013-07-16 07:58:00,
2013-07-16 04:03:00,73.3,69.5,30.22,WNW,284,0.0,0.0,88,0.00,CLR,,0.00,0.0,WeatherDisplay:10.37,2013-07-16 08:03:00,
2013-07-16 04:08:00,73.3,69.5,30.22,WNW,284,0.0,0.0,88,0.00,CLR,,0.00,0.0,WeatherDisplay:10.37,2013-07-16 08:08:00,
2013-07-16 04:13:00,73.3,69.5,30.22,WNW,284,0.0,0.0,88,0.00,BKN,,0.00,0.0,WeatherDisplay:10.37,2013-07-16 08:13:00,
2013-07-16 04:18:00,73.3,69.5,30.22,WNW,284,0.0,0.0,88,0.00,BKN,,0.00,0.0,WeatherDisplay:10.37,2013-07-16 08:18:00,
2013-07-16 04:23:00,73.3,69.5,30.22,WNW,284,0.0,0.0,88,0.00,BKN,,0.00,0.0,WeatherDisplay:10.37,2013-07-16 08:23:00,
2013-07-16 04:28:00,73.2,69.4,30.22,WNW,284,0.0,0.0,88,0.00,BKN,,0.00,0.0,WeatherDisplay:10.37,2013-07-16 08:28:00,
2013-07-16 04:33:00,73.2,69.4,30.22,WNW,284,0.0,1.2,88,0.00,BKN,,0.00,0.0,WeatherDisplay:10.37,2013-07-16 08:33:00,
2013-07-16 04:38:00,73.2,69.4,30.22,WNW,284,0.0,0.0,88,0.00,BKN,,0.00,0.0,WeatherDisplay:10.37,2013-07-16 08:38:00,
2013-07-16 04:43:00,73.2,69.4,30.22,WNW,284,0.0,0.0,88,0.00,BKN,,0.00,0.0,WeatherDisplay:10.37,2013-07-16 08:43:00,
2013-07-16 04:48:00,73.0,68.9,30.22,WNW,284,0.0,0.0,87,0.00,BKN,,0.00,0.0,WeatherDisplay:10.37,2013-07-16 08:48:00,
2013-07-16 04:53:00,73.0,68.9,30.22,WNW,284,0.0,0.0,87,0.00,BKN,,0.00,0.0,WeatherDisplay:10.37,2013-07-16 08:53:00,
2013-07-16 04:58:00,73.0,68.9,30.22,WNW,284,0.0,0.0,87,0.00,BKN,,0.00,0.0,WeatherDisplay:10.37,2013-07-16 08:58:00,
2013-07-16 05:03:00,73.0,69.2,30.22,WNW,284,0.0,0.0,88,0.00,BKN,,0.00,0.0,WeatherDisplay:10.37,2013-07-16 09:03:00,
2013-07-16 05:08:00,73.2,69.4,30.22,WNW,284,0.0,0.0,88,0.00,BKN,,0.00,0.0,WeatherDisplay:10.37,2013-07-16 09:08:00,
2013-07-16 05:13:00,73.2,69.4,30.22,WNW,284,0.0,1.2,88,0.00,BKN,,0.00,0.0,WeatherDisplay:10.37,2013-07-16 09:13:00,
2013-07-16 05:18:00,73.2,69.4,30.22,WNW,284,0.0,0.0,88,0.00,BKN,,0.00,0.0,WeatherDisplay:10.37,2013-07-16 09:18:00,
2013-07-16 05:23:00,73.2,69.4,30.22,WNW,284,0.0,0.0,88,0.00,BKN,,0.00,0.0,WeatherDisplay:10.37,2013-07-16 09:23:00,
2013-07-16 05:28:00,73.3,69.5,30.23,WNW,284,0.0,0.0,88,0.00,BKN,,0.00,0.0,WeatherDisplay:10.37,2013-07-16 09:28:00,
2013-07-16 05:33:00,73.3,69.2,30.23,WNW,284,0.0,0.0,87,0.00,BKN,,0.00,0.0,WeatherDisplay:10.37,2013-07-16 09:33:00,
2013-07-16 05:39:00,73.3,69.2,30.23,WNW,284,0.0,0.0,87,0.00,BKN,,0.00,0.0,WeatherDisplay:10.37,2013-07-16 09:39:00,
2013-07-16 05:44:00,73.5,69.4,30.23,WNW,284,0.0,0.0,87,0.00,BKN,,0.00,0.0,WeatherDisplay:10.37,2013-07-16 09:44:00,
2013-07-16 05:49:00,73.5,69.4,30.23,WNW,284,0.0,0.0,87,0.00,BKN,,0.00,0.0,WeatherDisplay:10.37,2013-07-16 09:49:00,
2013-07-16 05:54:00,73.5,69.4,30.23,WNW,284,0.0,0.0,87,0.00,BKN,,0.00,0.0,WeatherDisplay:10.37,2013-07-16 09:54:00,
2013-07-16 05:59:00,73.3,69.2,30.24,WNW,284,0.0,0.0,87,0.00,BKN,,0.00,0.0,WeatherDisplay:10.37,2013-07-16 09:59:00,
2013-07-16 06:04:00,73.3,69.2,30.24,WNW,284,0.0,0.0,87,0.00,SCT,,0.00,0.0,WeatherDisplay:10.37,2013-07-16 10:04:00,
2013-07-16 06:09:00,73.3,69.2,30.24,WNW,284,0.0,0.0,87,0.00,SCT,,0.00,0.0,WeatherDisplay:10.37,2013-07-16 10:09:00,
2013-07-16 06:14:00,73.3,69.2,30.24,WNW,284,0.0,0.0,87,0.00,SCT,,0.00,0.0,WeatherDisplay:10.37,2013-07-16 10:14:00,
2013-07-16 06:19:00,73.3,69.2,30.25,WNW,284,0.0,0.0,87,0.00,SCT,,0.00,5.0,WeatherDisplay:10.37,2013-07-16 10:19:00,
2013-07-16 06:24:00,73.3,69.2,30.25,WNW,284,0.0,0.0,87,0.00,SCT,,0.00,7.0,WeatherDisplay:10.37,2013-07-16 10:24:00,
2013-07-16 06:29:00,73.3,69.2,30.25,WNW,284,0.0,0.0,87,0.00,SCT,,0.00,11.0,WeatherDisplay:10.37,2013-07-16 10:29:00,
2013-07-16 06:34:00,73.5,69.7,30.25,WNW,284,0.0,0.0,88,0.00,SCT,,0.00,14.0,WeatherDisplay:10.37,2013-07-16 10:34:00,
2013-07-16 06:39:00,73.5,69.7,30.25,WNW,284,0.0,0.0,88,0.00,SCT,,0.00,25.0,WeatherDisplay:10.37,2013-07-16 10:39:00,
2013-07-16 06:44:00,73.7,69.9,30.25,WNW,284,0.0,0.0,88,0.00,SCT,,0.00,40.0,WeatherDisplay:10.37,2013-07-16 10:44:00,
2013-07-16 06:49:00,73.7,69.6,30.25,SW,220,0.0,0.0,87,0.00,SCT,,0.00,58.0,WeatherDisplay:10.37,2013-07-16 10:49:00,
2013-07-16 06:54:00,73.7,69.6,30.25,SW,220,0.0,0.0,87,0.00,SCT,,0.00,63.0,WeatherDisplay:10.37,2013-07-16 10:54:00,
2013-07-16 06:59:00,73.9,69.8,30.25,SW,220,0.0,0.0,87,0.00,SCT,,0.00,60.0,WeatherDisplay:10.37,2013-07-16 10:59:00,
2013-07-16 07:04:00,73.9,69.8,30.25,SW,220,0.0,0.0,87,0.00,FEW,,0.00,79.0,WeatherDisplay:10.37,2013-07-16 11:04:00,
2013-07-16 07:09:00,74.0,69.9,30.25,SW,220,0.0,0.0,87,0.00,FEW,,0.00,113.0,WeatherDisplay:10.37,2013-07-16 11:09:00,
2013-07-16 07:14:00,74.2,70.1,30.25,SW,220,0.0,0.0,87,0.00,FEW,,0.00,132.0,WeatherDisplay:10.37,2013-07-16 11:14:00,
2013-07-16 07:19:00,74.6,70.1,30.25,SW,220,0.0,0.0,86,0.00,FEW,,0.00,88.0,WeatherDisplay:10.37,2013-07-16 11:19:00,
2013-07-16 07:24:00,74.7,70.2,30.26,SW,220,0.0,1.2,86,0.00,FEW,,0.00,132.0,WeatherDisplay:10.37,2013-07-16 11:24:00,
2013-07-16 07:29:00,74.7,69.9,30.25,SW,220,0.0,0.0,85,0.00,FEW,,0.00,158.0,WeatherDisplay:10.37,2013-07-16 11:29:00,
2013-07-16 07:34:00,74.9,69.7,30.26,SW,220,0.1,1.5,84,0.00,FEW,,0.00,158.0,WeatherDisplay:10.37,2013-07-16 11:34:00,
2013-07-16 07:39:00,75.1,69.9,30.26,SW,220,0.0,0.0,84,0.00,FEW,,0.00,174.0,WeatherDisplay:10.37,2013-07-16 11:39:00,
2013-07-16 07:44:00,75.4,69.9,30.26,SW,220,0.0,0.0,83,0.00,FEW,,0.00,218.0,WeatherDisplay:10.37,2013-07-16 11:44:00,
2013-07-16 07:49:00,75.6,69.7,30.26,SW,220,0.0,0.0,82,0.00,FEW,,0.00,142.0,WeatherDisplay:10.37,2013-07-16 11:49:00,
2013-07-16 07:54:00,76.0,69.7,30.26,SW,220,0.0,0.0,81,0.00,FEW,,0.00,162.0,WeatherDisplay:10.37,2013-07-16 11:54:00,
2013-07-16 07:59:00,76.5,70.2,30.27,SW,220,0.0,0.0,81,0.00,FEW,,0.00,251.0,WeatherDisplay:10.37,2013-07-16 11:59:00,
2013-07-16 08:04:00,76.7,69.7,30.27,SW,220,0.4,1.5,79,0.00,FEW,,0.00,193.0,WeatherDisplay:10.37,2013-07-16 12:04:00,
2013-07-16 08:09:00,76.8,69.4,30.27,SW,220,0.0,0.0,78,0.00,FEW,,0.00,181.0,WeatherDisplay:10.37,2013-07-16 12:09:00,
2013-07-16 08:14:00,77.0,69.2,30.27,SW,220,0.0,0.0,77,0.00,FEW,,0.00,221.0,WeatherDisplay:10.37,2013-07-16 12:14:00,
2013-07-16 08:19:00,77.0,68.9,30.27,SW,220,0.0,0.0,76,0.00,FEW,,0.00,153.0,WeatherDisplay:10.37,2013-07-16 12:19:00,
2013-07-16 08:24:00,77.0,68.5,30.27,SW,220,0.4,4.6,75,0.00,FEW,,0.00,123.0,WeatherDisplay:10.37,2013-07-16 12:24:00,
2013-07-16 08:29:00,77.0,68.5,30.27,SW,220,0.0,0.0,75,0.00,FEW,,0.00,102.0,WeatherDisplay:10.37,2013-07-16 12:29:00,
2013-07-16 08:34:00,77.0,68.1,30.27,SW,220,0.0,0.0,74,0.00,FEW,,0.00,125.0,WeatherDisplay:10.37,2013-07-16 12:34:00,
2013-07-16 08:39:00,77.2,68.7,30.27,SW,220,0.0,0.0,75,0.00,FEW,,0.00,179.0,WeatherDisplay:10.37,2013-07-16 12:39:00,
2013-07-16 08:44:00,77.6,69.0,30.27,SW,220,0.0,0.0,75,0.00,FEW,,0.00,269.0,WeatherDisplay:10.37,2013-07-16 12:44:00,
2013-07-16 08:49:00,77.9,69.3,30.27,SW,220,0.0,0.0,75,0.00,FEW,,0.00,216.0,WeatherDisplay:10.37,2013-07-16 12:49:00,
2013-07-16 08:54:00,78.1,69.5,30.27,SW,220,0.0,0.0,75,0.00,FEW,,0.00,237.0,WeatherDisplay:10.37,2013-07-16 12:54:00,
2013-07-16 08:55:00,78.1,69.5,30.27,SW,220,0.0,0.0,75,0.00,FEW,,0.00,408.0,WeatherDisplay:10.37,2013-07-16 12:55:00,
2013-07-16 09:00:00,78.5,69.9,30.27,SW,220,0.0,0.0,75,0.00,FEW,,0.00,487.0,WeatherDisplay:10.37,2013-07-16 13:00:00,
2013-07-16 09:05:00,79.6,70.2,30.27,SW,220,0.0,1.5,73,0.00,SCT,,0.00,466.0,WeatherDisplay:10.37,2013-07-16 13:05:00,
2013-07-16 09:10:00,80.3,69.6,30.27,SW,220,0.4,1.5,70,0.00,SCT,,0.00,471.0,WeatherDisplay:10.37,2013-07-16 13:10:00,
2013-07-16 09:15:00,80.7,70.0,30.27,SW,220,0.1,1.5,70,0.00,SCT,,0.00,497.0,WeatherDisplay:10.37,2013-07-16 13:15:00,
2013-07-16 09:20:00,80.9,70.2,30.27,SW,220,0.1,1.2,70,0.00,SCT,,0.00,506.0,WeatherDisplay:10.37,2013-07-16 13:20:00,
2013-07-16 09:25:00,81.1,70.0,30.27,SW,220,0.0,0.0,69,0.00,SCT,,0.00,526.0,WeatherDisplay:10.37,2013-07-16 13:25:00,
2013-07-16 09:30:00,81.4,70.2,30.27,SW,220,0.0,0.0,69,0.00,SCT,,0.00,538.0,WeatherDisplay:10.37,2013-07-16 13:30:00,
2013-07-16 09:35:00,82.0,70.4,30.27,SW,223,0.0,1.5,68,0.00,SCT,,0.00,548.0,WeatherDisplay:10.37,2013-07-16 13:35:00,
2013-07-16 09:40:00,82.4,71.2,30.27,WSW,245,0.0,0.0,69,0.00,SCT,,0.00,568.0,WeatherDisplay:10.37,2013-07-16 13:40:00,
2013-07-16 09:45:00,82.6,70.5,30.27,WNW,283,1.4,4.5,67,0.00,SCT,,0.00,577.0,WeatherDisplay:10.37,2013-07-16 13:45:00,
2013-07-16 09:50:00,82.8,71.2,30.27,WNW,285,2.0,4.6,68,0.00,SCT,,0.00,587.0,WeatherDisplay:10.37,2013-07-16 13:50:00,
2013-07-16 09:55:00,82.8,71.2,30.27,NNW,340,0.7,3.5,68,0.00,SCT,,0.00,603.0,WeatherDisplay:10.37,2013-07-16 13:55:00,
2013-07-16 10:00:00,83.2,71.1,30.27,NNW,340,0.3,1.5,67,0.00,SCT,,0.00,612.0,WeatherDisplay:10.37,2013-07-16 14:00:00,
2013-07-16 10:05:00,83.6,71.0,30.27,NNW,340,0.0,1.5,66,0.00,FEW,,0.00,622.0,WeatherDisplay:10.37,2013-07-16 14:05:00,
2013-07-16 10:10:00,84.0,71.9,30.27,NW,322,0.1,1.2,67,0.00,FEW,,0.00,640.0,WeatherDisplay:10.37,2013-07-16 14:10:00,
2013-07-16 10:15:00,84.1,71.5,30.27,NW,322,0.3,1.5,66,0.00,FEW,,0.00,635.0,WeatherDisplay:10.37,2013-07-16 14:15:00,
2013-07-16 10:20:00,84.5,71.9,30.27,NNE,17,2.8,8.1,66,0.00,FEW,,0.00,659.0,WeatherDisplay:10.37,2013-07-16 14:20:00,
2013-07-16 10:25:00,84.7,71.6,30.27,NNE,19,0.0,5.8,65,0.00,FEW,,0.00,673.0,WeatherDisplay:10.37,2013-07-16 14:25:00,
2013-07-16 10:30:00,85.1,72.0,30.26,NNE,19,0.5,1.5,65,0.00,FEW,,0.00,694.0,WeatherDisplay:10.37,2013-07-16 14:30:00,
2013-07-16 10:35:00,85.7,72.1,30.26,NNE,21,2.2,4.5,64,0.00,FEW,,0.00,703.0,WeatherDisplay:10.37,2013-07-16 14:35:00,
2013-07-16 10:40:00,85.7,71.2,30.26,NE,34,6.9,9.2,62,0.00,FEW,,0.00,701.0,WeatherDisplay:10.37,2013-07-16 14:40:00,
2013-07-16 10:45:00,85.5,71.0,30.26,NW,326,3.5,5.8,62,0.00,FEW,,0.00,737.0,WeatherDisplay:10.37,2013-07-16 14:45:00,
2013-07-16 10:50:00,85.7,71.7,30.26,NW,326,1.2,5.8,63,0.00,FEW,,0.00,738.0,WeatherDisplay:10.37,2013-07-16 14:50:00,
2013-07-16 10:55:00,85.9,71.4,30.26,East,101,4.1,9.0,62,0.00,FEW,,0.00,761.0,WeatherDisplay:10.37,2013-07-16 14:55:00,
2013-07-16 11:00:00,86.3,70.8,30.26,NNW,339,5.7,9.2,60,0.00,FEW,,0.00,768.0,WeatherDisplay:10.37,2013-07-16 15:00:00,
2013-07-16 11:05:00,86.5,71.9,30.26,NNW,343,3.1,4.6,62,0.00,FEW,,0.00,775.0,WeatherDisplay:10.37,2013-07-16 15:05:00,
2013-07-16 11:10:00,86.5,71.0,30.25,NNE,19,2.4,4.6,60,0.00,FEW,,0.00,788.0,WeatherDisplay:10.37,2013-07-16 15:10:00,
2013-07-16 11:15:00,87.0,72.4,30.25,NW,326,4.0,6.0,62,0.00,BKN,,0.00,831.0,WeatherDisplay:10.37,2013-07-16 15:15:00,
2013-07-16 11:20:00,87.0,72.4,30.25,NW,325,4.1,8.1,62,0.00,BKN,,0.00,798.0,WeatherDisplay:10.37,2013-07-16 15:20:00,
2013-07-16 11:25:00,86.7,70.7,30.25,North,5,1.7,4.6,59,0.00,BKN,,0.00,809.0,WeatherDisplay:10.37,2013-07-16 15:25:00,
2013-07-16 11:30:00,87.0,71.9,30.25,North,355,0.8,3.5,61,0.00,BKN,,0.00,838.0,WeatherDisplay:10.37,2013-07-16 15:30:00,
2013-07-16 11:35:00,87.2,71.6,30.25,NE,34,6.7,18.4,60,0.00,BKN,,0.00,842.0,WeatherDisplay:10.37,2013-07-16 15:35:00,
2013-07-16 11:40:00,87.4,72.3,30.25,North,349,2.0,4.6,61,0.00,BKN,,0.00,882.0,WeatherDisplay:10.37,2013-07-16 15:40:00,
2013-07-16 11:45:00,87.8,71.7,30.25,NNE,27,0.4,10.4,59,0.00,BKN,,0.00,888.0,WeatherDisplay:10.37,2013-07-16 15:45:00,
2013-07-16 11:50:00,87.8,71.2,30.25,NE,41,0.0,1.2,58,0.00,BKN,,0.00,517.0,WeatherDisplay:10.37,2013-07-16 15:50:00,
2013-07-16 11:55:00,87.8,70.7,30.25,NNW,327,5.3,9.2,57,0.00,BKN,,0.00,954.0,WeatherDisplay:10.37,2013-07-16 15:55:00,
2013-07-16 12:00:00,87.6,71.0,30.25,NE,41,6.3,9.2,58,0.00,BKN,,0.00,907.0,WeatherDisplay:10.37,2013-07-16 16:00:00,
2013-07-16 12:05:00,87.6,71.5,30.25,NNW,341,7.3,9.2,59,0.00,SCT,,0.00,875.0,WeatherDisplay:10.37,2013-07-16 16:05:00,
2013-07-16 12:10:00,88.0,71.4,30.25,NNE,15,2.9,5.8,58,0.00,SCT,,0.00,875.0,WeatherDisplay:10.37,2013-07-16 16:10:00,
2013-07-16 12:15:00,88.0,70.9,30.25,NNE,17,0.9,3.5,57,0.00,SCT,,0.00,953.0,WeatherDisplay:10.37,2013-07-16 16:15:00,
2013-07-16 12:20:00,88.0,70.9,30.25,North,5,5.6,9.2,57,0.00,SCT,,0.00,304.0,WeatherDisplay:10.37,2013-07-16 16:20:00,
2013-07-16 12:25:00,87.8,72.2,30.25,North,350,2.8,8.1,60,0.00,SCT,,0.00,1011.0,WeatherDisplay:10.37,2013-07-16 16:25:00,
2013-07-16 12:30:00,87.8,71.2,30.24,NW,322,4.0,4.6,58,0.00,SCT,,0.00,1011.0,WeatherDisplay:10.37,2013-07-16 16:30:00,
2013-07-16 12:35:00,88.4,72.2,30.24,NW,313,5.7,6.0,59,0.00,SCT,,0.00,1025.0,WeatherDisplay:10.37,2013-07-16 16:35:00,
2013-07-16 12:40:00,88.8,72.1,30.24,NW,319,3.3,6.0,58,0.00,SCT,,0.00,1028.0,WeatherDisplay:10.37,2013-07-16 16:40:00,
2013-07-16 12:45:00,88.8,71.6,30.24,NE,54,2.2,5.8,57,0.00,SCT,,0.00,420.0,WeatherDisplay:10.37,2013-07-16 16:45:00,
2013-07-16 12:50:00,89.0,71.3,30.24,NE,37,3.9,8.1,56,0.00,SCT,,0.00,986.0,WeatherDisplay:10.37,2013-07-16 16:50:00,
2013-07-16 12:55:00,89.5,70.1,30.23,NNW,348,0.6,1.5,53,0.00,SCT,,0.00,990.0,WeatherDisplay:10.37,2013-07-16 16:55:00,
2013-07-16 13:00:00,89.5,69.5,30.23,NNW,334,8.3,8.3,52,0.00,SCT,,0.00,993.0,WeatherDisplay:10.37,2013-07-16 17:00:00,
2013-07-16 13:05:00,89.5,69.5,30.23,NW,321,0.7,4.6,52,0.00,SCT,,0.00,1007.0,WeatherDisplay:10.37,2013-07-16 17:05:00,
2013-07-16 13:10:00,89.3,69.9,30.23,NW,321,2.8,5.8,53,0.00,SCT,,0.00,974.0,WeatherDisplay:10.37,2013-07-16 17:10:00,
2013-07-16 13:15:00,89.9,72.1,30.23,NE,34,2.5,7.5,56,0.00,SCT,,0.00,944.0,WeatherDisplay:10.37,2013-07-16 17:15:00,
2013-07-16 13:20:00,89.9,71.0,30.23,NNE,32,6.8,8.1,54,0.00,SCT,,0.00,464.0,WeatherDisplay:10.37,2013-07-16 17:20:00,
2013-07-16 13:25:00,89.0,69.1,30.23,NNE,13,6.9,9.2,52,0.00,SCT,,0.00,267.0,WeatherDisplay:10.37,2013-07-16 17:25:00,
2013-07-16 13:30:00,88.8,70.0,30.22,NW,308,2.8,8.1,54,0.00,SCT,,0.00,1009.0,WeatherDisplay:10.37,2013-07-16 17:30:00,
2013-07-16 13:35:00,89.3,71.0,30.22,NW,310,0.6,1.5,55,0.00,SCT,,0.00,998.0,WeatherDisplay:10.37,2013-07-16 17:35:00,
2013-07-16 13:40:00,89.7,71.4,30.22,NW,310,2.7,4.6,55,0.00,SCT,,0.00,935.0,WeatherDisplay:10.37,2013-07-16 17:40:00,
2013-07-16 13:45:00,89.3,70.5,30.22,NNW,342,6.4,9.2,54,0.00,SCT,,0.00,248.0,WeatherDisplay:10.37,2013-07-16 17:45:00,
2013-07-16 13:50:00,89.0,71.8,30.22,NNE,25,2.2,4.6,57,0.00,SCT,,0.00,923.0,WeatherDisplay:10.37,2013-07-16 17:50:00,
2013-07-16 13:55:00,89.3,71.0,30.22,North,5,3.0,7.5,55,0.00,SCT,,0.00,933.0,WeatherDisplay:10.37,2013-07-16 17:55:00,
2013-07-16 14:00:00,89.5,70.7,30.22,NNW,343,3.4,4.5,54,0.00,SCT,,0.00,904.0,WeatherDisplay:10.37,2013-07-16 18:00:00,
2013-07-16 14:05:00,89.7,70.3,30.21,North,349,2.9,5.8,53,0.00,CLR,,0.00,918.0,WeatherDisplay:10.37,2013-07-16 18:05:00,
2013-07-16 14:10:00,89.9,69.9,30.21,NNE,30,4.1,8.1,52,0.00,CLR,,0.00,951.0,WeatherDisplay:10.37,2013-07-16 18:10:00,
2013-07-16 14:15:00,90.3,70.3,30.21,NNE,24,5.0,7.5,52,0.00,CLR,,0.00,951.0,WeatherDisplay:10.37,2013-07-16 18:15:00,
2013-07-16 14:20:00,90.5,69.9,30.21,NNE,15,4.2,8.1,51,0.00,CLR,,0.00,951.0,WeatherDisplay:10.37,2013-07-16 18:20:00,
2013-07-16 14:25:00,90.5,69.9,30.21,NNW,346,4.2,5.8,51,0.00,CLR,,0.00,969.0,WeatherDisplay:10.37,2013-07-16 18:25:00,
2013-07-16 14:30:00,90.5,71.0,30.21,NNW,333,2.4,8.1,53,0.00,CLR,,0.00,874.0,WeatherDisplay:10.37,2013-07-16 18:30:00,
2013-07-16 14:35:00,90.7,70.1,30.21,NNW,336,4.1,6.0,51,0.00,CLR,,0.00,909.0,WeatherDisplay:10.37,2013-07-16 18:35:00,
2013-07-16 14:40:00,91.0,70.4,30.21,North,11,3.9,5.8,51,0.00,CLR,,0.00,861.0,WeatherDisplay:10.37,2013-07-16 18:40:00,
2013-07-16 14:41:00,91.0,69.2,30.21,North,355,3.9,6.0,49,0.00,CLR,,0.00,909.0,WeatherDisplay:10.37,2013-07-16 18:41:00,
2013-07-16 14:46:00,91.0,68.0,30.21,NE,35,4.2,7.5,47,0.00,CLR,,0.00,867.0,WeatherDisplay:10.37,2013-07-16 18:46:00,
2013-07-16 14:51:00,90.5,68.1,30.20,North,350,8.5,13.8,48,0.00,CLR,,0.00,763.0,WeatherDisplay:10.37,2013-07-16 18:51:00,
2013-07-16 14:56:00,90.3,66.7,30.21,NNW,339,6.4,8.1,46,0.00,CLR,,0.00,835.0,WeatherDisplay:10.37,2013-07-16 18:56:00,
2013-07-16 15:01:00,90.5,66.3,30.20,NW,307,2.6,9.0,45,0.00,CLR,,0.00,831.0,WeatherDisplay:10.37,2013-07-16 19:01:00,
2013-07-16 15:06:00,91.0,66.7,30.20,NNW,340,6.6,10.4,45,0.00,CLR,,0.00,828.0,WeatherDisplay:10.37,2013-07-16 19:06:00,
2013-07-16 15:11:00,91.2,66.9,30.20,NW,322,9.7,10.5,45,0.00,SCT,,0.00,830.0,WeatherDisplay:10.37,2013-07-16 19:11:00,
2013-07-16 15:16:00,91.4,67.1,30.20,NNW,340,2.8,5.8,45,0.00,SCT,,0.00,831.0,WeatherDisplay:10.37,2013-07-16 19:16:00,
2013-07-16 15:21:00,91.4,67.1,30.20,NW,313,5.5,7.5,45,0.00,SCT,,0.00,823.0,WeatherDisplay:10.37,2013-07-16 19:21:00,
2013-07-16 15:26:00,91.4,65.8,30.20,North,360,4.2,6.0,43,0.00,SCT,,0.00,773.0,WeatherDisplay:10.37,2013-07-16 19:26:00,
2013-07-16 15:31:00,91.4,67.7,30.20,North,11,1.3,3.5,46,0.00,SCT,,0.00,770.0,WeatherDisplay:10.37,2013-07-16 19:31:00,
2013-07-16 15:36:00,91.2,65.6,30.20,NNE,32,5.3,5.8,43,0.00,SCT,,0.00,705.0,WeatherDisplay:10.37,2013-07-16 19:36:00,
2013-07-16 15:41:00,91.0,66.7,30.19,ENE,57,4.1,8.1,45,0.00,SCT,,0.00,759.0,WeatherDisplay:10.37,2013-07-16 19:41:00,
2013-07-16 15:46:00,91.4,67.1,30.19,NNE,20,6.3,10.4,45,0.00,SCT,,0.00,752.0,WeatherDisplay:10.37,2013-07-16 19:46:00,
2013-07-16 15:51:00,91.2,66.9,30.19,NNW,336,2.9,10.5,45,0.00,SCT,,0.00,728.0,WeatherDisplay:10.37,2013-07-16 19:51:00,
2013-07-16 15:56:00,91.2,66.2,30.19,NE,46,4.3,9.0,44,0.00,SCT,,0.00,714.0,WeatherDisplay:10.37,2013-07-16 19:56:00,
2013-07-16 16:01:00,91.0,68.6,30.19,NNE,30,1.0,5.8,48,0.00,FEW,,0.00,710.0,WeatherDisplay:10.37,2013-07-16 20:01:00,
2013-07-16 16:06:00,91.4,67.7,30.19,East,87,1.4,6.0,46,0.00,FEW,,0.00,684.0,WeatherDisplay:10.37,2013-07-16 20:06:00,
2013-07-16 16:11:00,91.4,65.8,30.19,North,11,2.0,5.8,43,0.00,FEW,,0.00,675.0,WeatherDisplay:10.37,2013-07-16 20:11:00,
2013-07-16 16:16:00,91.6,65.9,30.19,NNW,331,5.2,6.0,43,0.00,FEW,,0.00,657.0,WeatherDisplay:10.37,2013-07-16 20:16:00,
2013-07-16 16:21:00,91.8,67.4,30.19,NW,318,1.8,4.5,45,0.00,FEW,,0.00,645.0,WeatherDisplay:10.37,2013-07-16 20:21:00,
2013-07-16 16:26:00,91.6,63.9,30.19,North,351,3.1,10.4,40,0.00,FEW,,0.00,617.0,WeatherDisplay:10.37,2013-07-16 20:26:00,
2013-07-16 16:31:00,91.6,66.6,30.19,NW,317,1.3,3.5,44,0.00,FEW,,0.00,596.0,WeatherDisplay:10.37,2013-07-16 20:31:00,
2013-07-16 16:36:00,91.8,66.8,30.18,NW,317,0.3,1.5,44,0.00,FEW,,0.00,561.0,WeatherDisplay:10.37,2013-07-16 20:36:00,
2013-07-16 16:41:00,91.8,64.0,30.18,NW,313,4.4,8.1,40,0.00,FEW,,0.00,594.0,WeatherDisplay:10.37,2013-07-16 20:41:00,
2013-07-16 16:46:00,91.8,64.0,30.18,NNE,32,2.8,4.6,40,0.00,FEW,,0.00,587.0,WeatherDisplay:10.37,2013-07-16 20:46:00,
2013-07-16 16:51:00,91.6,63.1,30.18,NNE,29,5.1,9.2,39,0.00,FEW,,0.00,564.0,WeatherDisplay:10.37,2013-07-16 20:51:00,
2013-07-16 16:56:00,91.4,62.2,30.18,NNW,345,6.1,8.1,38,0.00,FEW,,0.00,545.0,WeatherDisplay:10.37,2013-07-16 20:56:00,
2013-07-16 17:01:00,91.4,63.0,30.18,NNW,331,6.0,9.2,39,0.00,FEW,,0.00,538.0,WeatherDisplay:10.37,2013-07-16 21:01:00,
2013-07-16 17:06:00,91.6,64.6,30.18,NNW,331,1.9,6.0,41,0.00,FEW,,0.00,527.0,WeatherDisplay:10.37,2013-07-16 21:06:00,
2013-07-16 17:11:00,91.6,65.3,30.18,NNW,327,4.5,9.0,42,0.00,FEW,,0.00,515.0,WeatherDisplay:10.37,2013-07-16 21:11:00,
2013-07-16 17:16:00,91.8,64.0,30.18,NW,316,2.6,4.5,40,0.00,FEW,,0.00,501.0,WeatherDisplay:10.37,2013-07-16 21:16:00,
2013-07-16 17:21:00,92.1,62.8,30.18,NNW,333,5.9,10.5,38,0.00,FEW,,0.00,483.0,WeatherDisplay:10.37,2013-07-16 21:21:00,
2013-07-16 17:26:00,91.8,63.3,30.18,NNW,336,3.0,4.5,39,0.00,FEW,,0.00,471.0,WeatherDisplay:10.37,2013-07-16 21:26:00,
2013-07-16 17:31:00,91.6,62.4,30.18,NNW,337,4.9,6.0,38,0.00,FEW,,0.00,461.0,WeatherDisplay:10.37,2013-07-16 21:31:00,
2013-07-16 17:36:00,91.6,60.9,30.18,NNW,339,1.2,3.5,36,0.00,FEW,,0.00,446.0,WeatherDisplay:10.37,2013-07-16 21:36:00,
2013-07-16 17:38:00,91.6,62.4,30.18,NNW,339,4.7,4.7,38,0.00,FEW,,0.00,439.0,WeatherDisplay:10.37,2013-07-16 21:38:00,
2013-07-16 17:43:00,91.6,62.4,30.18,NNW,342,3.4,7.5,38,0.00,FEW,,0.00,424.0,WeatherDisplay:10.37,2013-07-16 21:43:00,
2013-07-16 17:48:00,91.4,60.7,30.18,North,5,2.9,5.8,36,0.00,FEW,,0.00,399.0,WeatherDisplay:10.37,2013-07-16 21:48:00,
2013-07-16 17:53:00,91.4,63.0,30.18,NNW,340,0.0,1.2,39,0.00,FEW,,0.00,385.0,WeatherDisplay:10.37,2013-07-16 21:53:00,
2013-07-16 17:58:00,91.4,62.2,30.18,NNW,329,5.7,6.0,38,0.00,FEW,,0.00,378.0,WeatherDisplay:10.37,2013-07-16 21:58:00,
2013-07-16 18:03:00,91.4,62.2,30.18,NNW,329,1.1,5.8,38,0.00,SCT,,0.00,362.0,WeatherDisplay:10.37,2013-07-16 22:03:00,
2013-07-16 18:08:00,91.2,62.8,30.18,NNW,331,1.7,4.6,39,0.00,SCT,,0.00,341.0,WeatherDisplay:10.37,2013-07-16 22:08:00,
2013-07-16 18:13:00,91.2,66.9,30.18,NNW,337,0.7,3.0,45,0.00,SCT,,0.00,329.0,WeatherDisplay:10.37,2013-07-16 22:13:00,
2013-07-16 18:18:00,91.2,64.9,30.18,NNW,344,0.4,1.5,42,0.00,SCT,,0.00,311.0,WeatherDisplay:10.37,2013-07-16 22:18:00,
2013-07-16 18:23:00,91.4,64.4,30.18,NNW,344,0.0,1.2,41,0.00,SCT,,0.00,295.0,WeatherDisplay:10.37,2013-07-16 22:23:00,
2013-07-16 18:28:00,91.2,63.5,30.18,NNW,344,3.0,4.6,40,0.00,SCT,,0.00,287.0,WeatherDisplay:10.37,2013-07-16 22:28:00,
2013-07-16 18:33:00,91.2,64.9,30.18,NNW,333,0.1,4.6,42,0.00,SCT,,0.00,265.0,WeatherDisplay:10.37,2013-07-16 22:33:00,
2013-07-16 18:38:00,90.7,64.5,30.18,NNW,331,0.1,4.6,42,0.00,SCT,,0.00,257.0,WeatherDisplay:10.37,2013-07-16 22:38:00,
2013-07-16 18:43:00,90.7,64.5,30.18,NNW,331,0.1,1.2,42,0.00,SCT,,0.00,244.0,WeatherDisplay:10.37,2013-07-16 22:43:00,
2013-07-16 18:48:00,90.7,65.1,30.18,NNW,331,0.5,4.6,43,0.00,SCT,,0.00,227.0,WeatherDisplay:10.37,2013-07-16 22:48:00,
2013-07-16 18:53:00,90.5,64.9,30.18,NNW,331,0.1,1.2,43,0.00,SCT,,0.00,214.0,WeatherDisplay:10.37,2013-07-16 22:53:00,
2013-07-16 18:58:00,90.7,67.1,30.18,NNW,331,0.1,1.5,46,0.00,SCT,,0.00,199.0,WeatherDisplay:10.37,2013-07-16 22:58:00,
2013-07-16 19:03:00,90.7,66.4,30.18,NNW,331,0.0,0.0,45,0.00,SCT,,0.00,190.0,WeatherDisplay:10.37,2013-07-16 23:03:00,
2013-07-16 19:08:00,90.5,67.5,30.18,NNW,331,0.2,1.5,47,0.00,SCT,,0.00,167.0,WeatherDisplay:10.37,2013-07-16 23:08:00,
2013-07-16 19:13:00,90.5,66.3,30.18,NNW,331,0.0,1.2,45,0.00,SCT,,0.00,153.0,WeatherDisplay:10.37,2013-07-16 23:13:00,
2013-07-16 19:18:00,90.7,68.3,30.18,NNW,331,0.0,0.0,48,0.00,SCT,,0.00,137.0,WeatherDisplay:10.37,2013-07-16 23:18:00,
2013-07-16 19:23:00,90.5,68.7,30.18,NNW,331,0.0,0.0,49,0.00,SCT,,0.00,121.0,WeatherDisplay:10.37,2013-07-16 23:23:00,
2013-07-16 19:28:00,90.3,66.7,30.18,NNW,331,0.2,0.0,46,0.00,SCT,,0.00,107.0,WeatherDisplay:10.37,2013-07-16 23:28:00,
2013-07-16 19:33:00,90.1,68.4,30.18,NNW,331,0.0,0.0,49,0.00,SCT,,0.00,91.0,WeatherDisplay:10.37,2013-07-16 23:33:00,
2013-07-16 19:38:00,89.5,66.0,30.18,NNW,331,0.0,1.2,46,0.00,SCT,,0.00,77.0,WeatherDisplay:10.37,2013-07-16 23:38:00,
2013-07-16 19:43:00,88.8,68.3,30.18,NNW,331,0.0,0.0,51,0.00,SCT,,0.00,63.0,WeatherDisplay:10.37,2013-07-16 23:43:00,
2013-07-16 19:48:00,88.4,70.2,30.18,NNW,331,0.0,0.0,55,0.00,SCT,,0.00,51.0,WeatherDisplay:10.37,2013-07-16 23:48:00,
2013-07-16 19:53:00,87.6,69.4,30.18,NNW,331,0.0,0.0,55,0.00,SCT,,0.00,40.0,WeatherDisplay:10.37,2013-07-16 23:53:00,
2013-07-16 19:58:00,87.0,68.9,30.18,NNW,331,0.0,0.0,55,0.00,SCT,,0.00,33.0,WeatherDisplay:10.37,2013-07-16 23:58:00,
2013-07-16 20:03:00,86.5,67.9,30.19,NNW,331,0.0,0.0,54,0.00,SCT,,0.00,26.0,WeatherDisplay:10.37,2013-07-17 00:03:00,
2013-07-16 20:08:00,85.9,69.9,30.19,NNW,331,0.0,0.0,59,0.00,SCT,,0.00,19.0,WeatherDisplay:10.37,2013-07-17 00:08:00,
2013-07-16 20:09:00,85.7,69.2,30.19,NNW,331,0.0,0.0,58,0.00,SCT,,0.00,19.0,WeatherDisplay:10.37,2013-07-17 00:09:00,
2013-07-16 20:14:00,84.5,69.1,30.19,NNW,331,0.0,0.0,60,0.00,SCT,,0.00,14.0,WeatherDisplay:10.37,2013-07-17 00:14:00,
2013-07-16 20:19:00,83.6,69.2,30.19,NNW,331,0.0,0.0,62,0.00,SCT,,0.00,9.0,WeatherDisplay:10.37,2013-07-17 00:19:00,
2013-07-16 20:24:00,83.0,69.1,30.19,NNW,331,0.0,0.0,63,0.00,SCT,,0.00,5.0,WeatherDisplay:10.37,2013-07-17 00:24:00,
2013-07-16 20:29:00,82.4,69.9,30.19,NNW,331,0.0,0.0,66,0.00,SCT,,0.00,0.0,WeatherDisplay:10.37,2013-07-17 00:29:00,
2013-07-16 20:34:00,81.4,68.9,30.19,NNW,331,0.0,0.0,66,0.00,SCT,,0.00,0.0,WeatherDisplay:10.37,2013-07-17 00:34:00,
2013-07-16 20:39:00,81.1,69.5,30.19,NNW,331,0.0,0.0,68,0.00,SCT,,0.00,0.0,WeatherDisplay:10.37,2013-07-17 00:39:00,
2013-07-16 20:44:00,80.5,69.4,30.19,NNW,331,0.0,0.0,69,0.00,SCT,,0.00,0.0,WeatherDisplay:10.37,2013-07-17 00:44:00,
2013-07-16 20:49:00,80.3,70.0,30.20,NNW,331,0.0,0.0,71,0.00,SCT,,0.00,0.0,WeatherDisplay:10.37,2013-07-17 00:49:00,
2013-07-16 20:54:00,79.9,70.1,30.20,NNW,331,0.0,0.0,72,0.00,SCT,,0.00,0.0,WeatherDisplay:10.37,2013-07-17 00:54:00,
2013-07-16 20:59:00,79.4,70.0,30.20,NNW,331,0.0,0.0,73,0.00,SCT,,0.00,0.0,WeatherDisplay:10.37,2013-07-17 00:59:00,
2013-07-16 21:04:00,79.2,70.6,30.19,NNW,331,0.0,0.0,75,0.00,FEW,,0.00,0.0,WeatherDisplay:10.37,2013-07-17 01:04:00,
2013-07-16 21:09:00,79.0,70.4,30.19,NNW,331,0.0,0.0,75,0.00,FEW,,0.00,0.0,WeatherDisplay:10.37,2013-07-17 01:09:00,
2013-07-16 21:14:00,78.5,70.3,30.19,NNW,331,0.0,0.0,76,0.00,FEW,,0.00,0.0,WeatherDisplay:10.37,2013-07-17 01:14:00,
2013-07-16 21:19:00,78.1,70.3,30.19,NNW,331,0.0,0.0,77,0.00,FEW,,0.00,0.0,WeatherDisplay:10.37,2013-07-17 01:19:00,
2013-07-16 21:24:00,77.9,70.5,30.19,NNW,331,0.0,0.0,78,0.00,FEW,,0.00,0.0,WeatherDisplay:10.37,2013-07-17 01:24:00,
2013-07-16 21:29:00,77.7,70.3,30.19,NNW,331,0.0,0.0,78,0.00,FEW,,0.00,0.0,WeatherDisplay:10.37,2013-07-17 01:29:00,
2013-07-16 21:34:00,77.6,70.6,30.20,NNW,331,0.0,0.0,79,0.00,FEW,,0.00,0.0,WeatherDisplay:10.37,2013-07-17 01:34:00,
2013-07-16 21:39:00,77.4,70.4,30.20,NNW,331,0.0,0.0,79,0.00,FEW,,0.00,0.0,WeatherDisplay:10.37,2013-07-17 01:39:00,
2013-07-16 21:44:00,77.0,70.4,30.20,NNW,331,0.0,0.0,80,0.00,FEW,,0.00,0.0,WeatherDisplay:10.37,2013-07-17 01:44:00,
2013-07-16 21:49:00,77.0,70.4,30.20,NNW,331,0.0,0.0,80,0.00,FEW,,0.00,0.0,WeatherDisplay:10.37,2013-07-17 01:49:00,
2013-07-16 21:54:00,76.8,70.5,30.20,NNW,331,0.0,0.0,81,0.00,FEW,,0.00,0.0,WeatherDisplay:10.37,2013-07-17 01:54:00,
2013-07-16 21:59:00,76.7,70.4,30.20,NNW,331,0.0,0.0,81,0.00,FEW,,0.00,0.0,WeatherDisplay:10.37,2013-07-17 01:59:00,
2013-07-16 22:04:00,76.3,70.0,30.20,NNW,331,0.0,0.0,81,0.00,FEW,,0.00,0.0,WeatherDisplay:10.37,2013-07-17 02:04:00,
2013-07-16 22:09:00,76.1,70.2,30.20,NNW,331,0.0,0.0,82,0.00,FEW,,0.00,0.0,WeatherDisplay:10.37,2013-07-17 02:09:00,
2013-07-16 22:14:00,75.8,69.9,30.20,NNW,331,0.0,0.0,82,0.00,FEW,,0.00,0.0,WeatherDisplay:10.37,2013-07-17 02:14:00,
2013-07-16 22:19:00,75.4,69.5,30.21,NNW,331,0.0,0.0,82,0.00,FEW,,0.00,0.0,WeatherDisplay:10.37,2013-07-17 02:19:00,
2013-07-16 22:24:00,75.3,69.8,30.21,NNW,331,0.0,0.0,83,0.00,FEW,,0.00,0.0,WeatherDisplay:10.37,2013-07-17 02:24:00,
2013-07-16 22:29:00,75.4,70.2,30.21,NNW,331,0.0,0.0,84,0.00,FEW,,0.00,0.0,WeatherDisplay:10.37,2013-07-17 02:29:00,
2013-07-16 22:34:00,75.3,70.1,30.21,NNW,331,0.0,0.0,84,0.00,FEW,,0.00,0.0,WeatherDisplay:10.37,2013-07-17 02:34:00,
2013-07-16 22:40:00,75.1,69.9,30.22,NNW,331,0.0,0.0,84,0.00,FEW,,0.00,0.0,WeatherDisplay:10.37,2013-07-17 02:40:00,
2013-07-16 22:45:00,75.1,69.9,30.22,NNW,331,0.0,0.0,84,0.00,FEW,,0.00,0.0,WeatherDisplay:10.37,2013-07-17 02:45:00,
2013-07-16 22:50:00,74.9,70.1,30.22,NNW,331,0.0,0.0,85,0.00,FEW,,0.00,0.0,WeatherDisplay:10.37,2013-07-17 02:50:00,
2013-07-16 22:55:00,74.9,70.1,30.22,NNW,331,0.0,0.0,85,0.00,FEW,,0.00,0.0,WeatherDisplay:10.37,2013-07-17 02:55:00,
2013-07-16 23:00:00,74.6,69.8,30.21,NNW,331,0.0,0.0,85,0.00,FEW,,0.00,0.0,WeatherDisplay:10.37,2013-07-17 03:00:00,
2013-07-16 23:05:00,74.4,69.6,30.22,NNW,331,0.0,0.0,85,0.00,CLR,,0.00,0.0,WeatherDisplay:10.37,2013-07-17 03:05:00,
2013-07-16 23:10:00,74.4,69.9,30.22,NNW,331,0.0,0.0,86,0.00,CLR,,0.00,0.0,WeatherDisplay:10.37,2013-07-17 03:10:00,
2013-07-16 23:15:00,74.4,69.9,30.22,NNW,331,0.0,0.0,86,0.00,CLR,,0.00,0.0,WeatherDisplay:10.37,2013-07-17 03:15:00,
2013-07-16 23:20:00,74.2,69.7,30.22,NNW,331,0.0,0.0,86,0.00,CLR,,0.00,0.0,WeatherDisplay:10.37,2013-07-17 03:20:00,
2013-07-16 23:25:00,74.0,69.5,30.21,NNW,331,0.0,0.0,86,0.00,CLR,,0.00,0.0,WeatherDisplay:10.37,2013-07-17 03:25:00,
2013-07-16 23:30:00,73.9,69.4,30.22,NNW,331,0.0,0.0,86,0.00,CLR,,0.00,0.0,WeatherDisplay:10.37,2013-07-17 03:30:00,
2013-07-16 23:35:00,73.9,69.4,30.22,NNW,331,0.0,0.0,86,0.00,CLR,,0.00,0.0,WeatherDisplay:10.37,2013-07-17 03:35:00,
2013-07-16 23:40:00,73.9,69.8,30.22,NNW,331,0.0,0.0,87,0.00,CLR,,0.00,0.0,WeatherDisplay:10.37,2013-07-17 03:40:00,
2013-07-16 23:45:00,73.9,69.8,30.22,NNW,331,0.0,0.0,87,0.00,CLR,,0.00,0.0,WeatherDisplay:10.37,2013-07-17 03:45:00,
2013-07-16 23:50:00,73.7,69.6,30.21,NNW,331,0.0,0.0,87,0.00,CLR,,0.00,0.0,WeatherDisplay:10.37,2013-07-17 03:50:00,
2013-07-16 23:55:00,73.5,69.4,30.21,NNW,331,0.0,0.0,87,0.00,CLR,,0.00,0.0,WeatherDisplay:10.37,2013-07-17 03:55:00,